Time,TemperatureF,DewpointF,PressureIn,WindDirection,WindDirectionDegrees,WindSpeedMPH,WindSpeedGustMPH,Humidity,HourlyPrecipIn,Conditions,Clouds,dailyrainin,SoftwareType,DateUTC
2013-04-16 00:03:00,44.0,38.0,30.33,SSE,160,0.0,0.0,78,0.00,,,0.00,,2013-04-16 04:03:00,
2013-04-16 00:12:00,44.0,38.0,30.33,SSE,160,0.0,0.0,78,0.00,,,0.00,,2013-04-16 04:12:00,
2013-04-16 00:23:00,43.0,37.0,30.33,SSE,160,0.0,0.0,78,0.00,,,0.00,,2013-04-16 04:23:00,
2013-04-16 00:33:00,43.0,37.0,30.32,SSE,160,0.0,0.0,80,0.00,,,0.00,,2013-04-16 04:33:00,
2013-04-16 00:42:00,43.0,37.0,30.32,SSE,160,0.0,0.0,80,0.00,,,0.00,,2013-04-16 04:42:00,
2013-04-16 00:53:00,42.0,37.0,30.33,SSE,160,0.0,0.0,82,0.00,,,0.00,,2013-04-16 04:53:00,
2013-04-16 01:02:00,42.0,37.0,30.33,SSE,160,0.0,0.0,83,0.00,,,0.00,,2013-04-16 05:02:00,
2013-04-16 01:12:00,42.0,37.0,30.33,SSE,160,0.0,0.0,83,0.00,,,0.00,,2013-04-16 05:12:00,
2013-04-16 01:22:00,41.0,37.0,30.34,SSE,161,0.0,0.0,84,0.00,,,0.00,,2013-04-16 05:22:00,
2013-04-16 01:32:00,41.0,36.0,30.34,SSE,161,0.0,0.0,83,0.00,,,0.00,,2013-04-16 05:32:00,
2013-04-16 01:42:00,41.0,36.0,30.34,SSE,161,0.0,0.0,83,0.00,,,0.00,,2013-04-16 05:42:00,
2013-04-16 01:52:00,40.0,37.0,30.34,SSE,160,0.0,0.0,88,0.00,,,0.00,,2013-04-16 05:52:00,
2013-04-16 02:02:00,40.0,37.0,30.34,SSE,160,0.0,0.0,88,0.00,,,0.00,,2013-04-16 06:02:00,
2013-04-16 02:12:00,40.0,36.0,30.34,SSE,160,0.0,0.0,87,0.00,,,0.00,,2013-04-16 06:12:00,
2013-04-16 02:22:00,40.0,36.0,30.34,SSE,160,0.0,0.0,87,0.00,,,0.00,,2013-04-16 06:22:00,
2013-04-16 02:32:00,39.0,36.0,30.33,SSE,160,0.0,0.0,90,0.00,,,0.00,,2013-04-16 06:32:00,
2013-04-16 02:42:00,39.0,36.0,30.33,SSE,160,0.0,0.0,90,0.00,,,0.00,,2013-04-16 06:42:00,
2013-04-16 02:52:00,38.0,34.0,30.33,SSE,160,0.0,0.0,86,0.00,,,0.00,,2013-04-16 06:52:00,
2013-04-16 03:02:00,38.0,34.0,30.33,SSE,160,0.0,0.0,87,0.00,,,0.00,,2013-04-16 07:02:00,
2013-04-16 03:12:00,38.0,34.0,30.33,SSE,160,0.0,0.0,87,0.00,,,0.00,,2013-04-16 07:12:00,
2013-04-16 03:22:00,37.0,34.0,30.33,SSE,160,0.0,0.0,89,0.00,,,0.00,,2013-04-16 07:22:00,
2013-04-16 03:32:00,37.0,34.0,30.33,SSE,160,0.0,0.0,90,0.00,,,0.00,,2013-04-16 07:32:00,
2013-04-16 03:42:00,37.0,34.0,30.33,SSE,160,0.0,0.0,90,0.00,,,0.00,,2013-04-16 07:42:00,
2013-04-16 03:53:00,37.0,35.0,30.33,SSE,160,0.0,0.0,91,0.00,,,0.00,,2013-04-16 07:53:00,
2013-04-16 04:02:00,36.0,34.0,30.33,SSE,160,0.0,0.0,91,0.00,,,0.00,,2013-04-16 08:02:00,
2013-04-16 04:12:00,36.0,34.0,30.33,SSE,160,0.0,0.0,91,0.00,,,0.00,,2013-04-16 08:12:00,
2013-04-16 04:22:00,36.0,34.0,30.33,SSE,160,0.0,0.0,92,0.00,,,0.00,,2013-04-16 08:22:00,
2013-04-16 04:32:00,36.0,34.0,30.33,SSE,160,0.0,0.0,92,0.00,,,0.00,,2013-04-16 08:32:00,
2013-04-16 04:42:00,36.0,34.0,30.33,SSE,160,0.0,0.0,92,0.00,,,0.00,,2013-04-16 08:42:00,
2013-04-16 04:52:00,36.0,34.0,30.33,SSE,160,0.0,0.0,93,0.00,,,0.00,,2013-04-16 08:52:00,
2013-04-16 05:02:00,36.0,34.0,30.33,SSE,168,0.0,0.0,92,0.00,,,0.00,,2013-04-16 09:02:00,
2013-04-16 05:12:00,36.0,34.0,30.33,SSE,168,0.0,0.0,92,0.00,,,0.00,,2013-04-16 09:12:00,
2013-04-16 05:22:00,35.0,33.0,30.33,SSE,168,0.0,0.0,93,0.00,,,0.00,,2013-04-16 09:22:00,
2013-04-16 05:33:00,35.0,33.0,30.33,East,96,0.0,0.0,94,0.00,,,0.00,,2013-04-16 09:33:00,
2013-04-16 05:42:00,35.0,33.0,30.33,East,96,0.0,0.0,94,0.00,,,0.00,,2013-04-16 09:42:00,
2013-04-16 05:53:00,36.0,34.0,30.32,East,96,0.0,0.0,94,0.00,,,0.00,,2013-04-16 09:53:00,
2013-04-16 06:03:00,36.0,34.0,30.32,East,96,0.0,0.0,94,0.00,,,0.00,,2013-04-16 10:03:00,
2013-04-16 06:13:00,36.0,34.0,30.32,East,96,0.0,0.0,94,0.00,,,0.00,,2013-04-16 10:13:00,
2013-04-16 06:23:00,36.0,35.0,30.32,East,96,0.0,0.0,95,0.00,,,0.00,,2013-04-16 10:23:00,
2013-04-16 06:33:00,36.0,34.0,30.33,East,96,0.0,0.0,94,0.00,,,0.00,,2013-04-16 10:33:00,
2013-04-16 06:42:00,36.0,34.0,30.33,East,96,0.0,0.0,94,0.00,,,0.00,,2013-04-16 10:42:00,
2013-04-16 06:53:00,36.0,34.0,30.33,East,96,0.0,0.0,91,0.00,,,0.00,,2013-04-16 10:53:00,
2013-04-16 07:02:00,37.0,34.0,30.33,East,96,0.0,0.0,89,0.00,,,0.00,,2013-04-16 11:02:00,
2013-04-16 07:12:00,37.0,34.0,30.33,East,96,0.0,0.0,89,0.00,,,0.00,,2013-04-16 11:12:00,
2013-04-16 07:22:00,39.0,35.0,30.33,East,96,0.0,0.0,87,0.00,,,0.00,,2013-04-16 11:22:00,
2013-04-16 07:32:00,41.0,35.0,30.33,ENE,72,0.0,2.0,80,0.00,,,0.00,,2013-04-16 11:32:00,
2013-04-16 07:42:00,41.0,35.0,30.33,ENE,72,0.0,2.0,80,0.00,,,0.00,,2013-04-16 11:42:00,
2013-04-16 07:53:00,42.0,36.0,30.33,ESE,119,0.0,1.0,78,0.00,,,0.00,,2013-04-16 11:53:00,
2013-04-16 08:02:00,43.0,36.0,30.32,ENE,73,0.0,1.0,77,0.00,,,0.00,,2013-04-16 12:02:00,
2013-04-16 08:12:00,43.0,36.0,30.32,ENE,73,0.0,1.0,77,0.00,,,0.00,,2013-04-16 12:12:00,
2013-04-16 08:22:00,44.0,37.0,30.32,WSW,256,0.0,1.0,76,0.00,,,0.00,,2013-04-16 12:22:00,
2013-04-16 08:32:00,44.0,37.0,30.32,NW,320,0.0,2.0,77,0.00,,,0.00,,2013-04-16 12:32:00,
2013-04-16 08:42:00,44.0,37.0,30.32,NW,320,0.0,2.0,77,0.00,,,0.00,,2013-04-16 12:42:00,
2013-04-16 08:52:00,45.0,38.0,30.31,SSW,202,0.0,2.0,75,0.00,,,0.00,,2013-04-16 12:52:00,
2013-04-16 09:02:00,46.0,38.0,30.31,West,270,0.0,2.0,74,0.00,,,0.00,,2013-04-16 13:02:00,
2013-04-16 09:12:00,46.0,38.0,30.31,West,270,0.0,2.0,74,0.00,,,0.00,,2013-04-16 13:12:00,
2013-04-16 09:22:00,48.0,40.0,30.30,SW,215,0.0,5.0,74,0.00,,,0.00,,2013-04-16 13:22:00,
2013-04-16 09:32:00,49.0,41.0,30.29,SW,226,0.0,6.0,74,0.00,,,0.00,,2013-04-16 13:32:00,
2013-04-16 09:42:00,49.0,41.0,30.29,SW,226,0.0,6.0,74,0.00,,,0.00,,2013-04-16 13:42:00,
2013-04-16 09:52:00,51.0,42.0,30.29,WSW,248,1.0,7.0,71,0.00,,,0.00,,2013-04-16 13:52:00,
2013-04-16 10:02:00,52.0,43.0,30.29,WNW,282,2.0,7.0,72,0.00,,,0.00,,2013-04-16 14:02:00,
2013-04-16 10:12:00,52.0,43.0,30.29,WNW,282,2.0,7.0,72,0.00,,,0.00,,2013-04-16 14:12:00,
2013-04-16 10:22:00,53.0,43.0,30.29,SW,232,2.0,8.0,70,0.00,,,0.00,,2013-04-16 14:22:00,
2013-04-16 10:32:00,53.0,44.0,30.28,WSW,256,2.0,7.0,71,0.00,,,0.00,,2013-04-16 14:32:00,
2013-04-16 10:42:00,53.0,44.0,30.28,WSW,256,2.0,7.0,71,0.00,,,0.00,,2013-04-16 14:42:00,
2013-04-16 10:52:00,54.0,44.0,30.27,West,263,0.0,11.0,69,0.00,,,0.00,,2013-04-16 14:52:00,
2013-04-16 11:02:00,56.0,45.0,30.27,SSE,165,4.0,7.0,67,0.00,,,0.00,,2013-04-16 15:02:00,
2013-04-16 11:12:00,56.0,45.0,30.27,SSE,165,4.0,7.0,67,0.00,,,0.00,,2013-04-16 15:12:00,
2013-04-16 11:22:00,57.0,46.0,30.26,WSW,241,0.0,6.0,66,0.00,,,0.00,,2013-04-16 15:22:00,
2013-04-16 11:33:00,59.0,46.0,30.24,SSW,212,4.0,8.0,61,0.00,,,0.00,,2013-04-16 15:33:00,
2013-04-16 11:43:00,59.0,46.0,30.24,SSW,212,4.0,8.0,61,0.00,,,0.00,,2013-04-16 15:43:00,
2013-04-16 11:53:00,60.0,46.0,30.21,North,360,1.0,11.0,60,0.00,,,0.00,,2013-04-16 15:53:00,
2013-04-16 12:03:00,61.0,46.0,30.22,SW,234,4.0,12.0,58,0.00,,,0.00,,2013-04-16 16:03:00,
2013-04-16 12:13:00,61.0,46.0,30.22,SW,234,4.0,12.0,58,0.00,,,0.00,,2013-04-16 16:13:00,
2013-04-16 12:23:00,61.0,46.0,30.19,SSW,198,7.0,17.0,58,0.00,,,0.00,,2013-04-16 16:23:00,
2013-04-16 12:32:00,62.0,48.0,30.19,West,274,1.0,8.0,60,0.00,,,0.00,,2013-04-16 16:32:00,
2013-04-16 12:42:00,62.0,48.0,30.19,West,274,1.0,8.0,60,0.00,,,0.00,,2013-04-16 16:42:00,
2013-04-16 12:53:00,62.0,47.0,30.19,South,169,1.0,16.0,59,0.00,,,0.00,,2013-04-16 16:53:00,
2013-04-16 13:02:00,63.0,48.0,30.18,WSW,241,7.0,21.0,58,0.00,,,0.00,,2013-04-16 17:02:00,
2013-04-16 13:12:00,63.0,48.0,30.18,WSW,241,7.0,21.0,58,0.00,,,0.00,,2013-04-16 17:12:00,
2013-04-16 13:22:00,64.0,48.0,30.16,SW,215,2.0,9.0,57,0.00,,,0.00,,2013-04-16 17:22:00,
2013-04-16 13:32:00,65.0,49.0,30.16,SSE,164,5.0,20.0,56,0.00,,,0.00,,2013-04-16 17:32:00,
2013-04-16 13:43:00,65.0,49.0,30.16,SSE,164,5.0,20.0,56,0.00,,,0.00,,2013-04-16 17:43:00,
2013-04-16 13:53:00,64.0,47.0,30.16,South,191,6.0,18.0,55,0.00,,,0.00,,2013-04-16 17:53:00,
2013-04-16 14:02:00,63.0,48.0,30.14,SSW,200,6.0,16.0,59,0.00,,,0.00,,2013-04-16 18:02:00,
2013-04-16 14:12:00,63.0,48.0,30.14,SSE,147,0.0,14.0,58,0.00,,,0.00,,2013-04-16 18:12:00,
2013-04-16 14:22:00,63.0,48.0,30.14,SSE,147,0.0,14.0,58,0.00,,,0.00,,2013-04-16 18:22:00,
2013-04-16 14:32:00,64.0,49.0,30.13,SSW,213,4.0,9.0,59,0.00,,,0.00,,2013-04-16 18:32:00,
2013-04-16 14:42:00,64.0,49.0,30.13,SSW,213,4.0,9.0,59,0.00,,,0.00,,2013-04-16 18:42:00,
2013-04-16 14:52:00,63.0,48.0,30.13,SSE,155,5.0,12.0,59,0.00,,,0.00,,2013-04-16 18:52:00,
2013-04-16 15:02:00,62.0,49.0,30.13,SE,141,2.0,12.0,63,0.00,,,0.00,,2013-04-16 19:02:00,
2013-04-16 15:12:00,62.0,49.0,30.13,SE,141,2.0,12.0,63,0.00,,,0.00,,2013-04-16 19:12:00,
2013-04-16 15:22:00,61.0,50.0,30.14,South,169,2.0,8.0,67,0.00,,,0.00,,2013-04-16 19:22:00,
2013-04-16 15:32:00,60.0,52.0,30.13,SSE,164,0.0,6.0,75,0.00,,,0.00,,2013-04-16 19:32:00,
2013-04-16 15:42:00,60.0,52.0,30.13,SSE,164,0.0,6.0,75,0.00,,,0.00,,2013-04-16 19:42:00,
2013-04-16 15:52:00,58.0,52.0,30.12,SSW,195,0.0,3.0,79,0.00,,,0.00,,2013-04-16 19:52:00,
2013-04-16 16:02:00,58.0,51.0,30.11,SW,216,0.0,7.0,78,0.00,,,0.00,,2013-04-16 20:02:00,
2013-04-16 16:12:00,58.0,51.0,30.11,SW,216,0.0,7.0,78,0.00,,,0.00,,2013-04-16 20:12:00,
2013-04-16 16:22:00,58.0,53.0,30.10,SSE,162,0.0,3.0,82,0.00,,,0.00,,2013-04-16 20:22:00,
2013-04-16 16:32:00,58.0,53.0,30.09,South,171,3.0,8.0,83,0.00,,,0.00,,2013-04-16 20:32:00,
2013-04-16 16:42:00,58.0,53.0,30.09,South,171,3.0,8.0,83,0.00,,,0.00,,2013-04-16 20:42:00,
2013-04-16 16:52:00,57.0,53.0,30.08,SE,140,0.0,5.0,88,0.00,,,0.00,,2013-04-16 20:52:00,
2013-04-16 17:02:00,57.0,53.0,30.08,SSE,158,3.0,8.0,88,0.01,,,0.01,,2013-04-16 21:02:00,
2013-04-16 17:12:00,57.0,53.0,30.08,SSE,158,3.0,8.0,88,0.01,,,0.01,,2013-04-16 21:12:00,
2013-04-16 17:22:00,58.0,54.0,30.08,SE,143,2.0,13.0,85,0.01,,,0.01,,2013-04-16 21:22:00,
2013-04-16 17:32:00,58.0,53.0,30.08,SSE,151,1.0,10.0,83,0.01,,,0.01,,2013-04-16 21:32:00,
2013-04-16 17:43:00,58.0,53.0,30.08,SSE,151,1.0,10.0,83,0.01,,,0.01,,2013-04-16 21:43:00,
2013-04-16 17:53:00,58.0,53.0,30.07,South,186,1.0,10.0,83,0.01,,,0.01,,2013-04-16 21:53:00,
2013-04-16 18:03:00,58.0,53.0,30.05,ESE,117,6.0,12.0,82,0.00,,,0.01,,2013-04-16 22:03:00,
2013-04-16 18:13:00,58.0,53.0,30.05,ESE,117,6.0,12.0,82,0.00,,,0.01,,2013-04-16 22:13:00,
2013-04-16 18:22:00,58.0,52.0,30.05,SSE,157,1.0,11.0,81,0.00,,,0.01,,2013-04-16 22:22:00,
2013-04-16 18:33:00,58.0,52.0,30.06,South,176,0.0,13.0,81,0.00,,,0.01,,2013-04-16 22:33:00,
2013-04-16 18:42:00,58.0,52.0,30.06,South,176,0.0,13.0,81,0.00,,,0.01,,2013-04-16 22:42:00,
2013-04-16 18:52:00,58.0,52.0,30.06,ESE,107,4.0,11.0,81,0.00,,,0.01,,2013-04-16 22:52:00,
2013-04-16 19:02:00,58.0,53.0,30.06,SE,140,1.0,11.0,82,0.00,,,0.01,,2013-04-16 23:02:00,
2013-04-16 19:12:00,58.0,53.0,30.06,SE,140,1.0,11.0,82,0.00,,,0.01,,2013-04-16 23:12:00,
2013-04-16 19:22:00,57.0,52.0,30.06,SE,144,1.0,7.0,83,0.00,,,0.01,,2013-04-16 23:22:00,
2013-04-16 19:32:00,57.0,52.0,30.04,SE,124,0.0,12.0,83,0.00,,,0.01,,2013-04-16 23:32:00,
2013-04-16 19:42:00,57.0,52.0,30.04,SE,124,0.0,12.0,83,0.00,,,0.01,,2013-04-16 23:42:00,
2013-04-16 19:52:00,57.0,52.0,30.05,South,186,0.0,6.0,84,0.00,,,0.01,,2013-04-16 23:52:00,
2013-04-16 20:02:00,57.0,53.0,30.05,SSE,160,0.0,3.0,85,0.00,,,0.01,,2013-04-17 00:02:00,
2013-04-16 20:12:00,57.0,53.0,30.05,SSE,160,0.0,3.0,85,0.00,,,0.01,,2013-04-17 00:12:00,
2013-04-16 20:22:00,56.0,52.0,30.05,SE,144,1.0,8.0,86,0.00,,,0.01,,2013-04-17 00:22:00,
2013-04-16 20:32:00,56.0,52.0,30.04,ESE,120,4.0,9.0,86,0.00,,,0.01,,2013-04-17 00:32:00,
2013-04-16 20:42:00,56.0,52.0,30.04,ESE,120,4.0,9.0,86,0.00,,,0.01,,2013-04-17 00:42:00,
2013-04-16 20:52:00,56.0,52.0,30.03,SSE,155,1.0,11.0,88,0.00,,,0.01,,2013-04-17 00:52:00,
2013-04-16 21:02:00,56.0,52.0,30.04,SE,145,3.0,5.0,88,0.00,,,0.01,,2013-04-17 01:02:00,
2013-04-16 21:12:00,56.0,52.0,30.04,SE,145,3.0,5.0,88,0.00,,,0.01,,2013-04-17 01:12:00,
2013-04-16 21:22:00,56.0,53.0,30.04,SE,126,2.0,5.0,89,0.00,,,0.01,,2013-04-17 01:22:00,
2013-04-16 21:32:00,56.0,53.0,30.04,East,100,8.0,16.0,89,0.00,,,0.01,,2013-04-17 01:32:00,
2013-04-16 21:42:00,56.0,53.0,30.04,East,100,8.0,16.0,89,0.00,,,0.01,,2013-04-17 01:42:00,
2013-04-16 21:52:00,56.0,53.0,30.04,SE,145,6.0,11.0,90,0.00,,,0.01,,2013-04-17 01:52:00,
2013-04-16 22:02:00,56.0,53.0,30.03,South,186,0.0,6.0,90,0.00,,,0.01,,2013-04-17 02:02:00,
2013-04-16 22:12:00,56.0,53.0,30.03,South,186,0.0,6.0,90,0.00,,,0.01,,2013-04-17 02:12:00,
2013-04-16 22:22:00,56.0,53.0,30.04,SSE,155,7.0,13.0,90,0.00,,,0.01,,2013-04-17 02:22:00,
2013-04-16 22:32:00,56.0,53.0,30.03,SSE,155,5.0,12.0,91,0.00,,,0.01,,2013-04-17 02:32:00,
2013-04-16 22:42:00,56.0,53.0,30.03,SSE,155,5.0,12.0,91,0.00,,,0.01,,2013-04-17 02:42:00,
2013-04-16 22:52:00,56.0,54.0,30.03,SSW,213,2.0,11.0,94,0.00,,,0.01,,2013-04-17 02:52:00,
2013-04-16 23:02:00,55.0,54.0,30.03,SE,131,1.0,14.0,95,0.00,,,0.01,,2013-04-17 03:02:00,
2013-04-16 23:12:00,55.0,54.0,30.03,SE,131,1.0,14.0,95,0.00,,,0.01,,2013-04-17 03:12:00,
2013-04-16 23:22:00,55.0,54.0,30.04,SE,141,1.0,10.0,95,0.00,,,0.01,,2013-04-17 03:22:00,
2013-04-16 23:33:00,55.0,54.0,30.04,SSE,162,3.0,8.0,98,0.00,,,0.01,,2013-04-17 03:33:00,
2013-04-16 23:42:00,55.0,54.0,30.04,SSE,162,3.0,8.0,98,0.00,,,0.01,,2013-04-17 03:42:00,
2013-04-16 23:53:00,55.0,55.0,30.05,SE,143,0.0,7.0,99,0.00,,,0.01,,2013-04-17 03:53:00,